STARLINK-5145 (54008 NORAD) Tracking and Keplerian Element Data

This shows tracking and keplerian element data for the satellite.

Feedback or suggestion? Click here.




ElementValue
Catalog54008
NameSTARLINK-5145
Epoch Orbit766
Epoch Day325.25001157
Epoch Year2022
RAAN222.2483
Inclination53.2137
Eccentricity0.0001395
Argument of Perigee47.1256
Mean Anonmoly21.3579
Mean Motion15.73174169
Decay Rate0.00068415
L11 54008U 22125AW 22325.25001157 .00068415 00000+0 48845-3 0 9999
L22 54008 53.2137 222.2483 0001395 47.1256 21.3579 15.73174169 7666



Live tracking and technical data element details for STARLINK-5145 (NORAD 54008). STARLINK-5145 can be tracked NOW for your location showing map with azimuth and elevation plus other details from your city location.







IsCatalogInMostPopularTable: catalog: 54008, numindb: 3
Update: records affected: 1



GetName: 54008 STARLINK-5145

Hit Count: updated at: Fri, 09 Dec 2022 18:57:43 GMT